• In Deutschland
  • Länderverzeichnis
  • Für 7 Tage
  • Wassertemperatur
  • Satellitenkarten
  • Wetterkarte
  • Widgets
  • user-avatar
    Anmelden

    Stündliche Wetter Shusha

    Heute, 27 Juni, Dienstag

    Zeit Temperatur Niederschläge Wind Luftdruck Luftfeuchtigkeit
    00:00 +14°C° 0 mm 1 m/S 662 mmHg 86%
    01:00 +14°C° 0 mm 1 m/S 662 mmHg 86%
    02:00 +14°C° 0 mm 1 m/S 661 mmHg 86%
    03:00 +14°C° 0 mm 1 m/S 661 mmHg 88%
    04:00 +15°C° 0 mm 1 m/S 661 mmHg 84%
    05:00 +16°C° 0 mm 1 m/S 662 mmHg 81%
    06:00 +19°C° 0 mm 1 m/S 662 mmHg 77%
    07:00 +20°C° 0 mm 1 m/S 662 mmHg 70%
    08:00 +22°C° 0 mm 1 m/S 662 mmHg 62%
    09:00 +24°C° 0 mm 2 m/S 663 mmHg 55%
    10:00 +25°C° 0 mm 2 m/S 663 mmHg 51%
    11:00 +27°C° 0 mm 2 m/S 662 mmHg 48%
    12:00 +28°C° 0 mm 2 m/S 662 mmHg 44%
    13:00 +28°C° 0 mm 3 m/S 662 mmHg 43%
    14:00 +29°C° 0 mm 3 m/S 662 mmHg 42%
    15:00 +29°C° 0 mm 2 m/S 661 mmHg 43%
    16:00 +28°C° 0 mm 2 m/S 661 mmHg 46%
    17:00 +27°C° 0 mm 2 m/S 661 mmHg 48%
    18:00 +27°C° 0 mm 2 m/S 661 mmHg 51%
    19:00 +24°C° 0 mm 2 m/S 660 mmHg 61%
    20:00 +21°C° 0 mm 1 m/S 660 mmHg 70%
    21:00 +18°C° 0 mm 1 m/S 659 mmHg 80%
    22:00 +18°C° 0 mm 1 m/S 659 mmHg 81%
    23:00 +18°C° 0 mm 1 m/S 659 mmHg 83%

    Morgen, 28 Juni, Mittwoch

    Zeit Temperatur Niederschläge Wind Luftdruck Luftfeuchtigkeit
    00:00 +16°C° 0 mm 1 m/S 659 mmHg 84%
    01:00 +16°C° 0 mm 1 m/S 659 mmHg 85%
    02:00 +15°C° 0 mm 1 m/S 658 mmHg 86%
    03:00 +15°C° 0 mm 1 m/S 658 mmHg 87%
    04:00 +18°C° 0 mm 1 m/S 659 mmHg 84%
    05:00 +19°C° 0 mm 1 m/S 659 mmHg 80%
    06:00 +21°C° 0 mm 1 m/S 660 mmHg 76%
    07:00 +23°C° 0 mm 1 m/S 660 mmHg 68%
    08:00 +25°C° 0 mm 1 m/S 660 mmHg 60%
    09:00 +26°C° 0 mm 2 m/S 661 mmHg 52%
    10:00 +28°C° 0 mm 2 m/S 661 mmHg 48%
    11:00 +29°C° 0 mm 3 m/S 661 mmHg 45%
    12:00 +30°C° 0 mm 3 m/S 660 mmHg 42%
    13:00 +30°C° 0,1 mm 3 m/S 660 mmHg 41%
    14:00 +31°C° 0,1 mm 3 m/S 660 mmHg 41%
    15:00 +31°C° 0,1 mm 3 m/S 659 mmHg 40%
    16:00 +30°C° 0,1 mm 3 m/S 659 mmHg 43%
    17:00 +29°C° 0,1 mm 3 m/S 659 mmHg 46%
    18:00 +28°C° 0,1 mm 3 m/S 658 mmHg 49%
    19:00 +26°C° 0,1 mm 2 m/S 658 mmHg 56%
    20:00 +23°C° 0,1 mm 2 m/S 658 mmHg 63%
    21:00 +20°C° 0,1 mm 1 m/S 658 mmHg 70%
    22:00 +20°C° 0,1 mm 1 m/S 658 mmHg 71%
    23:00 +19°C° 0,1 mm 1 m/S 658 mmHg 73%

    übermorgen, 29 Juni, Donnerstag

    Zeit Temperatur Niederschläge Wind Luftdruck Luftfeuchtigkeit
    00:00 +19°C° 0,1 mm 1 m/S 658 mmHg 74%
    01:00 +18°C° 0 mm 1 m/S 657 mmHg 75%
    02:00 +18°C° 0 mm 1 m/S 657 mmHg 77%
    03:00 +16°C° 0 mm 1 m/S 657 mmHg 78%
    04:00 +19°C° 0 mm 1 m/S 658 mmHg 74%
    05:00 +20°C° 0 mm 1 m/S 658 mmHg 69%
    06:00 +21°C° 0 mm 1 m/S 659 mmHg 65%
    07:00 +23°C° 0 mm 1 m/S 659 mmHg 57%
    08:00 +25°C° 0 mm 1 m/S 660 mmHg 48%
    09:00 +27°C° 0 mm 2 m/S 660 mmHg 40%
    10:00 +28°C° 0,1 mm 2 m/S 660 mmHg 37%
    11:00 +29°C° 0,1 mm 2 m/S 660 mmHg 34%
    12:00 +30°C° 0,1 mm 3 m/S 660 mmHg 31%
    13:00 +30°C° 0,1 mm 3 m/S 660 mmHg 30%
    14:00 +30°C° 0,1 mm 3 m/S 659 mmHg 29%
    15:00 +31°C° 0,1 mm 3 m/S 659 mmHg 28%
    16:00 +30°C° 0,1 mm 2 m/S 659 mmHg 30%
    17:00 +29°C° 0,1 mm 2 m/S 659 mmHg 32%
    18:00 +28°C° 0,1 mm 2 m/S 658 mmHg 34%
    19:00 +25°C° 0 mm 2 m/S 658 mmHg 39%
    20:00 +23°C° 0 mm 2 m/S 658 mmHg 44%
    21:00 +20°C° 0 mm 1 m/S 658 mmHg 49%
    22:00 +19°C° 0 mm 1 m/S 658 mmHg 48%
    23:00 +18°C° 0 mm 2 m/S 658 mmHg 48%

    30 Juni, Freitag

    Zeit Temperatur Niederschläge Wind Luftdruck Luftfeuchtigkeit
    00:00 +18°C° 0 mm 2 m/S 658 mmHg 47%
    01:00 +17°C° 0 mm 2 m/S 658 mmHg 47%
    02:00 +17°C° 0 mm 2 m/S 658 mmHg 46%
    03:00 +17°C° 0 mm 2 m/S 657 mmHg 46%
    04:00 +18°C° 0 mm 2 m/S 658 mmHg 45%
    05:00 +19°C° 0 mm 2 m/S 658 mmHg 44%
    06:00 +20°C° 0 mm 2 m/S 659 mmHg 44%
    07:00 +23°C° 0 mm 2 m/S 659 mmHg 37%
    08:00 +25°C° 0 mm 2 m/S 660 mmHg 30%
    09:00 +27°C° 0 mm 2 m/S 661 mmHg 23%
    10:00 +28°C° 0 mm 2 m/S 661 mmHg 22%
    11:00 +29°C° 0 mm 2 m/S 660 mmHg 21%
    12:00 +30°C° 0 mm 3 m/S 660 mmHg 20%
    13:00 +30°C° 0 mm 3 m/S 660 mmHg 20%
    14:00 +30°C° 0 mm 3 m/S 660 mmHg 20%
    15:00 +31°C° 0 mm 3 m/S 660 mmHg 20%
    16:00 +30°C° 0 mm 3 m/S 660 mmHg 23%
    17:00 +29°C° 0 mm 2 m/S 660 mmHg 26%
    18:00 +28°C° 0 mm 2 m/S 660 mmHg 29%
    19:00 +25°C° 0 mm 2 m/S 660 mmHg 32%
    20:00 +23°C° 0 mm 2 m/S 659 mmHg 36%
    21:00 +19°C° 0 mm 2 m/S 659 mmHg 39%
    22:00 +19°C° 0 mm 2 m/S 659 mmHg 39%
    23:00 +18°C° 0 mm 2 m/S 659 mmHg 39%

    1 Juli, Samstag

    Zeit Temperatur Niederschläge Wind Luftdruck Luftfeuchtigkeit
    00:00 +18°C° 0 mm 2 m/S 659 mmHg 39%
    01:00 +18°C° 0 mm 2 m/S 659 mmHg 39%
    02:00 +17°C° 0 mm 2 m/S 659 mmHg 40%
    03:00 +17°C° 0 mm 3 m/S 659 mmHg 40%
    04:00 +18°C° 0 mm 3 m/S 660 mmHg 39%
    05:00 +18°C° 0 mm 2 m/S 660 mmHg 38%
    06:00 +19°C° 0 mm 2 m/S 661 mmHg 36%
    07:00 +21°C° 0 mm 2 m/S 661 mmHg 33%
    08:00 +25°C° 0 mm 1 m/S 662 mmHg 29%
    09:00 +27°C° 0 mm 1 m/S 663 mmHg 25%
    10:00 +28°C° 0 mm 2 m/S 663 mmHg 24%
    11:00 +29°C° 0 mm 2 m/S 663 mmHg 23%
    12:00 +30°C° 0 mm 3 m/S 663 mmHg 22%
    13:00 +30°C° 0 mm 3 m/S 662 mmHg 22%
    14:00 +30°C° 0 mm 4 m/S 662 mmHg 23%
    15:00 +32°C° 0 mm 4 m/S 662 mmHg 23%
    16:00 +30°C° 0 mm 4 m/S 662 mmHg 26%
    17:00 +29°C° 0 mm 4 m/S 662 mmHg 28%
    18:00 +28°C° 0 mm 4 m/S 662 mmHg 31%
    19:00 +26°C° 0 mm 3 m/S 662 mmHg 36%
    20:00 +23°C° 0 mm 2 m/S 661 mmHg 42%
    21:00 +19°C° 0 mm 2 m/S 661 mmHg 47%
    22:00 +19°C° 0 mm 2 m/S 661 mmHg 46%
    23:00 +18°C° 0 mm 2 m/S 661 mmHg 45%

    2 Juli, Sonntag

    Zeit Temperatur Niederschläge Wind Luftdruck Luftfeuchtigkeit
    00:00 +18°C° 0 mm 2 m/S 661 mmHg 44%
    01:00 +18°C° 0 mm 2 m/S 661 mmHg 42%
    02:00 +17°C° 0 mm 2 m/S 661 mmHg 41%
    03:00 +17°C° 0 mm 2 m/S 660 mmHg 40%
    04:00 +18°C° 0 mm 2 m/S 661 mmHg 39%
    05:00 +19°C° 0 mm 2 m/S 661 mmHg 39%
    06:00 +19°C° 0 mm 2 m/S 661 mmHg 38%
    07:00 +23°C° 0 mm 2 m/S 662 mmHg 34%
    08:00 +26°C° 0 mm 1 m/S 662 mmHg 29%
    09:00 +28°C° 0 mm 1 m/S 663 mmHg 24%
    10:00 +29°C° 0 mm 2 m/S 663 mmHg 23%
    11:00 +30°C° 0 mm 2 m/S 662 mmHg 23%
    12:00 +31°C° 0 mm 3 m/S 662 mmHg 22%
    13:00 +33°C° 0 mm 3 m/S 662 mmHg 22%
    14:00 +33°C° 0 mm 3 m/S 661 mmHg 22%
    15:00 +33°C° 0 mm 3 m/S 661 mmHg 22%
    16:00 +33°C° 0 mm 3 m/S 661 mmHg 24%
    17:00 +31°C° 0 mm 3 m/S 661 mmHg 27%
    18:00 +30°C° 0 mm 3 m/S 660 mmHg 30%
    19:00 +27°C° 0,1 mm 2 m/S 660 mmHg 34%
    20:00 +24°C° 0,1 mm 2 m/S 659 mmHg 38%
    21:00 +20°C° 0,1 mm 2 m/S 659 mmHg 43%
    22:00 +20°C° 0,1 mm 2 m/S 659 mmHg 44%
    23:00 +19°C° 0,1 mm 2 m/S 659 mmHg 45%
    Mehr zeigen